Temperature
15 15 15 15 15 15 15 15 15 15 15 15 15 15 15 15 14 14 14 14 14 14 14 14 14 14 14 14 14 14 14 14 14 14 14 14 14 14
15 15 15 15 15 15 15 14 14 14 14 14 14 14 14 14 14 14 14 14 14 14 13 13 13 13 13 13 13 13 14 14 14 14 14 14 14 14
15 15 15 15 15 15 14 14 14 14 14 14 14 14 14 14 14 14 14 13 13 13 13 13 13 13 13 13 13 13 13 13 13 13 14 14 14 14
15 15 15 15 15 14 14 14 14 14 14 14 14 14 14 14 14 14 14 13 13 13 13 13 13 13 13 13 13 13 13 13 13 13 13 13 13 13
15 15 15 15 15 15 14 14 14 14 14 14 14 14 14 14 13 13 13 13 13 13 13 13 13 13 13 13 13 13 13 13 13 13 13 13 13 13
15 15 15 15 15 15 14 14 14 14 14 13 14 14 14 14 13 13 13 13 13 13 13 13 13 13 13 13 13 13 13 13 13 13 13 13 13 13
15 15 15 15 15 14 14 14 14 14 13 13 13 13 14 13 13 13 13 13 13 13 13 13 13 13 13 13 13 13 13 13 13 12 12 12 12 12
15 15 15 15 15 14 14 14 14 13 13 13 13 13 13 13 13 13 12 12 12 13 12 13 13 13 13 13 13 12 12 12 12 12 12 12 12 12
15 15 15 15 15 14 14 14 13 13 13 13 13 13 13 13 13 12 12 12 12 12 12 12 12 12 13 12 12 12 12 12 12 12 12 12 12 12
15 15 15 15 14 14 14 14 13 13 13 13 13 13 13 13 12 12 12 12 12 12 12 12 12 12 12 12 12 12 12 12 12 12 12 12 12 12
14 14 14 14 14 14 13 13 13 13 13 13 13 12 12 12 12 12 12 11 11 12 12 12 12 12 12 12 12 12 12 12 12 12 12 12 12 12
14 14 14 13 13 13 13 13 13 13 13 13 12 12 12 12 12 12 12 11 11 11 12 11 12 11 11 12 12 12 12 12 12 12 12 12 12 12
13 13 13 13 13 12 12 12 12 12 12 12 12 12 12 12 12 12 12 11 11 11 11 11 11 11 11 11 11 11 11 11 11 12 12 12 11 11
13 13 13 12 12 12 12 12 12 11 11 11 11 11 12 12 12 12 11 11 11 11 11 11 11 11 11 10 11 11 11 11 11 11 11 11 11 11
12 12 12 12 11 11 11 11 11 11 11 11 11 11 11 11 11 11 11 11 11 11 11 11 10 10 10 10 10 11 11 11 11 11 11 11 11 11
12 11 11 11 11 11 11 11 11 10 10 10 10 10 10 10 10 11 11 11 10 11 11 11 10 10 10 10 10 10 11 11 11 11 11 11 11 11
11 11 11 11 10 10 10 10 10 10 10 10 10 10 10 10 10 10 10 10 10 10 10 10 10 10 10 10 10 10 10 10 11 11 10 10 11 11
11 11 10 10 10 10 10 10 10 10 9 9 9 9 9 9 9 9 9 9 9 10 10 10 10 10 10 10 10 10 10 10 10 10 10 10 10 11
10 10 10 9 9 9 9 9 9 9 9 9 9 8 8 9 8 8 9 9 9 9 9 9 9 9 9 9 10 10 10 10 10 10 10 10 10 11
10 9 9 9 9 8 8 8 8 8 8 8 8 8 8 8 8 8 8 8 8 8 8 9 9 9 9 9 9 9 10 9 10 10 10 10 10 10
9 9 8 8 8 8 8 8 7 7 7 7 7 7 7 7 7 7 7 7 8 8 8 8 9 9 8 8 8 9 9 9 9 9 9 9 9 10
8 8 8 8 7 7 7 7 7 7 7 7 7 7 7 7 7 7 7 7 7 7 7 8 8 8 8 8 8 8 9 9 9 9 9 9 9 9
8 7 7 7 7 7 7 6 6 6 6 6 6 6 6 6 6 6 6 7 7 7 7 8 8 8 8 8 8 8 9 9 9 9 9 9 9 9
Wind_Speed
3 3 2 1 1 2 3 4 4 2 3 4 3 3 3 6 8 10 10 11 12 13 14 14 15 15 15 14 14 14 14 14 15 15 16 16 16 17
3 3 3 2 1 1 2 2 3 4 3 3 3 3 3 5 8 10 12 13 13 14 15 16 17 17 18 18 18 17 17 16 16 16 17 17 17 17
4 5 5 4 3 2 2 2 3 4 4 4 3 3 3 4 5 9 12 13 14 16 17 18 18 19 19 20 20 20 19 19 18 18 18 18 18 18
6 6 6 5 5 4 3 3 3 4 4 5 4 3 5 5 5 5 8 11 12 15 17 17 18 19 20 20 20 21 21 21 21 20 19 19 19 18
7 7 7 6 6 5 5 5 4 4 4 4 5 4 4 4 4 5 5 5 9 12 14 16 17 18 19 20 21 21 22 22 22 22 22 21 21 20
8 8 8 8 8 8 6 7 6 5 4 4 5 5 5 5 3 4 5 4 5 8 11 12 14 16 18 19 20 21 22 23 23 23 23 23 23 23
7 7 8 9 11 9 7 7 6 5 5 5 6 5 5 4 5 4 5 6 5 5 5 6 7 7 12 16 18 20 22 23 24 24 24 24 24 24
8 7 7 9 11 13 13 12 10 8 8 6 6 7 8 7 6 5 5 4 5 4 3 6 4 7 8 13 18 20 22 23 23 23 24 24 25 25
8 7 7 8 9 8 10 12 12 14 13 9 9 10 9 8 6 7 7 7 8 6 3 6 6 8 8 15 20 21 22 23 23 23 23 24 24 25
8 8 8 8 8 7 7 8 9 10 11 10 10 12 11 10 9 9 9 8 7 6 5 6 7 7 9 11 19 21 22 22 22 22 23 23 24 24
7 7 8 8 10 9 7 8 9 9 12 15 16 16 18 19 13 6 6 6 8 7 5 5 6 7 7 8 14 20 22 22 21 22 22 22 23 21
6 6 9 9 9 8 6 7 9 10 9 8 9 12 13 15 17 12 10 9 8 7 6 6 6 5 5 6 7 9 12 17 20 21 21 21 20 12
6 5 5 7 8 9 9 9 13 11 8 8 8 9 8 9 10 10 10 11 11 10 7 6 6 5 6 6 5 6 7 7 8 11 17 20 20 13
5 4 4 6 8 10 9 11 14 11 7 7 8 9 9 10 10 10 10 12 13 14 12 9 7 8 7 7 7 5 6 6 6 7 7 13 15 18
4 6 7 9 9 8 11 13 11 7 6 7 9 10 10 10 9 8 8 9 10 14 17 12 11 10 9 10 9 8 7 6 7 8 8 7 7 6
4 5 7 8 8 9 9 8 6 6 7 8 8 9 8 7 8 8 8 8 8 10 10 13 11 12 11 12 11 11 9 6 5 7 7 7 6 6
2 2 2 3 5 5 5 6 6 5 6 6 7 8 8 8 9 7 7 7 8 9 9 8 8 9 12 10 10 11 10 9 9 8 7 8 9 9
2 3 4 5 6 6 6 7 6 6 6 6 6 7 8 8 9 7 7 8 9 10 9 8 6 5 5 7 13 12 10 10 9 8 7 8 11 8
3 4 5 5 6 6 6 6 6 7 6 6 6 7 8 8 8 8 8 8 9 10 9 7 6 6 9 11 8 13 11 10 8 7 8 9 10 9
3 4 5 6 6 6 6 6 6 6 6 6 6 7 7 7 8 8 8 9 9 9 9 7 7 8 10 11 9 7 13 11 8 9 8 7 8 10
4 5 5 6 6 6 6 6 6 6 6 6 6 7 7 7 8 8 9 11 10 8 10 10 10 12 8 5 6 7 7 13 14 9 7 6 6 5
5 5 5 6 6 5 6 6 6 6 7 6 7 7 7 7 9 10 9 9 9 9 10 10 8 6 5 8 10 10 10 8 10 16 15 12 7 7
5 5 6 6 6 5 6 6 7 7 7 7 7 8 8 8 8 8 9 9 9 10 10 9 7 6 7 8 9 9 11 9 6 6 8 13 18 18
Wind_Direction
158 159 158 168 146 159 156 154 153 186 282 289 302 301 283 247 237 224 231 240 245 250 252 254 257 260 262 264 266 266 266 265 263 262 262 262 261 258
176 168 182 196 174 156 152 156 158 168 221 264 263 278 285 272 253 235 241 248 251 255 257 259 261 262 263 262 262 262 263 263 264 263 261 260 259 259
199 192 208 204 202 202 170 161 167 165 211 267 266 279 285 281 280 261 259 257 259 262 263 263 264 265 265 264 261 261 260 261 261 261 260 259 258 257
211 205 218 216 215 219 207 209 209 196 198 247 274 277 268 266 266 268 266 262 259 265 266 265 266 267 267 266 263 261 260 260 259 260 260 259 258 258
211 211 218 210 221 224 219 221 226 223 203 221 256 258 267 270 278 281 274 270 269 269 268 268 269 270 270 268 265 262 261 260 259 258 257 257 257 257
214 213 215 210 218 222 225 225 225 229 228 231 252 262 265 271 262 269 284 275 271 274 273 273 272 273 272 272 270 266 263 261 260 258 256 255 255 255
224 223 223 222 221 219 223 220 217 224 230 236 251 262 264 265 256 250 261 274 273 256 265 271 272 274 277 277 274 269 265 263 261 260 257 254 252 252
229 235 238 236 237 233 233 226 213 218 227 233 244 246 254 247 249 249 252 266 278 258 235 265 257 265 267 270 270 267 265 264 262 260 257 255 252 250
223 231 243 242 236 237 244 246 240 234 226 225 238 247 251 245 240 250 245 241 252 248 230 268 262 264 265 268 266 265 264 264 263 261 259 256 253 249
225 226 233 245 243 234 240 249 250 248 240 234 237 247 248 246 235 240 249 255 260 256 215 254 264 260 266 264 265 264 264 264 263 262 260 258 254 250
240 238 236 243 252 245 239 250 260 263 258 247 241 245 249 250 244 243 247 248 265 266 215 222 255 261 263 262 263 263 261 261 262 262 261 259 255 251
252 250 242 243 255 252 240 246 258 264 267 272 261 259 257 258 252 236 235 243 251 262 234 213 246 246 269 259 254 257 260 262 261 261 260 258 254 244
248 251 246 249 259 264 255 247 254 261 268 265 267 267 264 259 256 244 231 232 241 249 238 207 233 232 234 261 264 250 244 252 258 258 258 256 251 229
244 251 250 262 271 273 267 258 265 271 265 264 266 267 266 264 260 252 242 237 238 246 248 224 229 237 244 256 263 260 247 242 240 247 249 255 252 239
246 262 274 280 283 278 271 272 275 265 256 259 264 266 263 263 264 262 259 252 250 251 253 240 235 241 237 249 256 254 260 254 237 241 245 241 239 228
264 279 285 285 279 273 280 282 268 256 254 259 264 267 271 271 269 265 266 266 265 268 256 246 237 236 245 247 249 254 248 244 243 235 238 245 240 226
245 274 285 290 289 286 283 278 275 275 268 263 265 272 275 273 272 267 261 261 257 265 273 268 248 239 238 242 247 250 251 249 248 246 240 252 252 239
199 254 266 268 269 276 282 286 282 277 271 269 269 269 272 274 275 272 263 260 262 264 265 266 266 270 269 255 231 242 247 248 249 240 227 242 259 251
211 253 261 264 266 268 269 271 276 277 274 275 276 277 276 274 272 272 270 266 265 265 264 259 247 243 262 272 254 221 232 245 244 240 232 231 248 255
237 252 259 263 264 267 269 273 278 284 284 283 281 279 277 277 279 276 271 267 268 270 270 262 246 239 246 259 266 253 224 229 236 242 244 241 248 256
258 256 258 261 264 265 268 272 274 275 277 279 280 280 279 279 279 276 273 270 267 268 268 267 258 249 250 251 261 262 250 227 224 231 230 234 247 251
261 264 267 266 267 270 274 275 276 274 277 277 278 280 280 279 279 277 275 274 270 266 268 270 268 259 240 244 254 262 267 261 239 236 234 223 218 226
267 269 272 273 272 274 276 276 276 277 277 277 280 281 283 282 280 277 275 274 273 272 270 271 269 258 252 248 252 258 261 263 257 250 252 243 236 242
Height
1553 1554 1555 1556 1556 1557 1557 1558 1559 1558 1557 1557 1557 1557 1557 1557 1556 1556 1555 1554 1553 1552 1551 1550 1549 1548 1548 1548 1548 1548 1548 1548 1548 1548 1549 1549 1550 1551
1551 1552 1553 1554 1554 1555 1555 1556 1556 1556 1555 1555 1555 1554 1554 1554 1553 1553 1552 1551 1550 1549 1547 1546 1545 1545 1544 1544 1543 1543 1543 1543 1543 1543 1543 1543 1544 1545
1549 1550 1551 1552 1552 1553 1553 1553 1553 1553 1552 1552 1552 1551 1551 1550 1550 1549 1548 1547 1546 1545 1544 1543 1542 1541 1540 1539 1539 1538 1538 1538 1537 1537 1537 1537 1538 1538
1547 1548 1548 1549 1549 1550 1550 1550 1550 1550 1550 1549 1548 1548 1547 1547 1546 1545 1544 1543 1542 1541 1540 1539 1538 1537 1536 1535 1534 1534 1533 1533 1532 1532 1532 1531 1532 1532
1544 1545 1545 1546 1546 1547 1547 1547 1547 1547 1546 1545 1544 1544 1543 1543 1542 1541 1540 1538 1538 1536 1535 1534 1533 1532 1531 1530 1529 1529 1528 1528 1527 1526 1526 1526 1525 1525
1541 1541 1542 1542 1543 1543 1543 1543 1543 1543 1542 1541 1540 1539 1538 1538 1537 1535 1534 1533 1532 1531 1530 1529 1528 1527 1526 1524 1524 1523 1522 1522 1521 1521 1520 1520 1520 1519
1537 1537 1538 1538 1539 1539 1539 1538 1538 1538 1537 1536 1535 1534 1533 1533 1532 1530 1528 1527 1526 1525 1523 1522 1521 1520 1519 1518 1517 1516 1516 1515 1515 1514 1514 1514 1513 1513
1532 1533 1533 1534 1534 1534 1534 1534 1534 1533 1532 1531 1530 1528 1527 1527 1526 1525 1523 1521 1518 1519 1517 1515 1515 1512 1512 1511 1510 1509 1509 1508 1508 1507 1507 1507 1506 1506
1527 1528 1528 1528 1528 1528 1528 1528 1527 1527 1526 1526 1524 1522 1522 1521 1520 1519 1517 1515 1512 1512 1511 1506 1507 1505 1504 1503 1502 1502 1501 1500 1500 1500 1499 1499 1499 1499
1521 1522 1522 1522 1522 1522 1522 1521 1521 1520 1520 1519 1518 1516 1516 1515 1514 1512 1510 1508 1505 1505 1504 1500 1498 1497 1496 1495 1494 1493 1493 1492 1492 1492 1491 1491 1491 1491
1515 1516 1516 1516 1516 1516 1515 1514 1513 1513 1513 1512 1511 1509 1508 1508 1507 1505 1502 1500 1496 1495 1496 1493 1491 1489 1487 1486 1486 1485 1485 1484 1484 1483 1483 1483 1483 1483
1509 1509 1509 1509 1509 1509 1508 1507 1505 1504 1504 1503 1502 1501 1500 1499 1498 1497 1494 1492 1489 1486 1487 1486 1483 1482 1478 1477 1477 1477 1476 1476 1475 1475 1475 1475 1475 1475
1502 1502 1502 1502 1502 1501 1501 1499 1498 1497 1496 1494 1493 1492 1491 1489 1488 1487 1485 1484 1481 1478 1478 1478 1475 1474 1472 1468 1468 1468 1468 1467 1467 1466 1466 1466 1466 1466
1495 1495 1495 1495 1495 1494 1493 1492 1491 1489 1487 1486 1484 1482 1481 1480 1478 1477 1476 1474 1472 1470 1470 1469 1467 1466 1464 1460 1458 1458 1459 1458 1458 1457 1457 1457 1457 1457
1491 1490 1490 1490 1489 1488 1487 1485 1484 1482 1480 1478 1475 1474 1472 1471 1469 1468 1466 1465 1463 1461 1461 1460 1458 1457 1455 1452 1450 1449 1449 1448 1449 1448 1448 1447 1447 1447
1485 1485 1485 1484 1483 1481 1480 1478 1476 1474 1472 1470 1467 1466 1464 1462 1460 1459 1457 1455 1452 1450 1451 1450 1449 1447 1445 1443 1442 1440 1440 1439 1439 1439 1439 1438 1438 1438
1480 1479 1478 1477 1476 1474 1473 1471 1469 1467 1465 1463 1460 1458 1456 1454 1452 1450 1448 1446 1444 1441 1440 1440 1439 1437 1435 1434 1432 1431 1430 1430 1430 1430 1429 1428 1428 1428
1475 1473 1472 1471 1470 1468 1466 1464 1462 1460 1458 1456 1453 1450 1448 1446 1443 1441 1440 1437 1434 1432 1430 1430 1429 1427 1425 1423 1424 1422 1421 1420 1421 1421 1420 1419 1417 1418
1470 1469 1467 1466 1464 1462 1460 1458 1456 1453 1451 1449 1446 1443 1441 1438 1435 1433 1431 1428 1425 1423 1421 1421 1420 1418 1416 1412 1411 1414 1412 1411 1411 1411 1410 1410 1408 1408
1465 1463 1462 1460 1458 1456 1454 1451 1449 1446 1444 1441 1438 1436 1433 1430 1427 1424 1422 1419 1416 1414 1412 1411 1410 1409 1407 1405 1402 1402 1403 1403 1402 1401 1401 1401 1400 1400
1460 1458 1456 1454 1452 1450 1447 1444 1441 1439 1436 1433 1431 1428 1425 1422 1419 1416 1413 1411 1408 1405 1403 1401 1401 1401 1399 1397 1394 1392 1393 1394 1393 1393 1392 1392 1391 1391
1454 1452 1450 1448 1445 1442 1439 1437 1434 1431 1428 1426 1423 1420 1417 1414 1410 1407 1405 1402 1399 1397 1395 1393 1392 1392 1390 1388 1386 1384 1384 1384 1384 1384 1384 1383 1383 1381
1448 1445 1443 1440 1438 1435 1432 1430 1427 1424 1421 1418 1415 1411 1408 1405 1402 1399 1396 1394 1391 1389 1387 1385 1384 1383 1382 1380 1379 1377 1376 1375 1375 1374 1374 1375 1375 1375